[[{"header":{"parameterUnit":"m.s-1","parameterCategory":1,"la1":30.2991,"la2":30.254,"lo1":-89.0895,"lo2":-89.0444,"dy":0.0017,"dx":0.0017,"nx":28,"ny":28,"refTime":"2025-04-19T09:00:00:Z","depth":0,"parameterNumber":2,"parameterNumberName":"U-component_of_WINDS"},"data":[0,0,0,0,0,0,0,0,0,0,0,0,0,0,0,0,0,0,0,0,0,0,0,0,0,0,0,0,0,0,0,0,0,0,0,0,0,0,0,0,0,0,0,0,0,0,0,0,0,0,0,0,0,0,0,0,0,0,-3.1573,-3.1573,0,-3.1562,-3.1562,-3.1562,-3.1499,-3.1497,-3.1496,-3.1495,-3.1486,-3.1487,-3.1488,0,0,0,0,0,0,0,0,0,0,0,0,0,-3.1543,-3.1544,-3.1573,-3.1573,-3.1573,-3.1562,-3.1562,-3.1562,-3.1499,-3.1497,-3.1496,-3.1494,-3.1485,-3.1487,-3.1488,0,0,0,0,0,0,0,0,0,0,0,0,0,-3.1546,-3.1544,-3.1573,-3.154,-3.1537,-3.1562,-3.1562,-3.1562,-3.15,-3.1497,-3.1495,-3.1493,-3.1485,-3.1487,-3.1488,-3.1545,0,0,-3.1494,-3.1495,0,0,0,0,0,0,0,0,-3.1546,-3.1547,-3.1545,-3.1542,-3.1539,-3.1529,-3.1548,-3.1556,-3.15,-3.1514,-3.1494,-3.1492,-3.1502,-3.1503,-3.1506,-3.1544,-3.1544,-3.1494,-3.1495,-3.1496,-3.1496,0,0,0,0,0,0,0,-3.1546,-3.1548,-3.1569,-3.1545,-3.1541,-3.1527,-3.1525,-3.1549,-3.1521,-3.1513,-3.1508,-3.1507,-3.15,-3.1504,-3.1505,-3.1544,-3.1494,-3.1496,-3.1497,-3.1497,-3.1629,-3.1631,0,0,0,0,0,0,-3.155,-3.1548,-3.1569,-3.1568,-3.1537,-3.1529,-3.1527,-3.1535,-3.1521,-3.1516,-3.1509,-3.1505,-3.1502,-3.1503,-3.1504,-3.1569,-3.1496,-3.1498,-3.1499,-3.1626,-3.1629,-3.1632,0,0,0,0,0,0,-3.155,-3.1552,-3.1569,-3.1557,-3.1558,-3.1532,-3.1541,-3.1536,-3.1539,-3.1518,-3.1513,-3.1518,-3.15,-3.1502,-3.1535,-3.1568,-3.1498,-3.15,-3.1624,-3.1627,-3.1631,-3.1699,0,0,0,0,0,0,-3.1549,-3.1553,-3.1573,-3.1558,-3.1559,-3.1599,-3.1543,-3.1537,-3.1542,-3.1536,-3.1525,-3.1521,-3.1499,-3.1533,-3.1537,-3.1569,-3.1501,-3.162,-3.1625,-3.1629,-3.1693,-3.1704,-3.1713,0,0,0,0,0,-3.1548,-3.1593,-3.1574,-3.1577,-3.1583,-3.1601,-3.1602,-3.1575,-3.1545,-3.1566,-3.1552,-3.1521,-3.1564,-3.1537,-3.1541,-3.1574,-3.1618,-3.1624,-3.1629,-3.1689,-3.1702,-3.1713,0,0,0,0,0,0,-3.1613,-3.159,-3.1569,-3.161,-3.1608,-3.1591,-3.1615,-3.159,-3.1596,-3.159,-3.1557,-3.1555,-3.1593,-3.1587,-3.1557,-3.1628,-3.1586,-3.1592,-3.163,-3.1642,-3.1652,-3.1652,-3.1503,0,0,0,0,0,-3.1632,-3.1648,-3.1628,-3.1666,-3.1666,-3.1641,-3.1648,-3.1627,-3.1624,-3.1623,-3.1612,-3.1611,-3.1624,-3.1633,-3.1644,-3.1693,-3.169,-3.1718,-3.1728,-3.1736,-3.1742,-3.1767,-3.1779,-3.165,-3.165,-3.165,0,0,-3.1672,-3.1662,-3.1673,-3.1679,-3.1675,-3.1692,-3.1641,-3.1662,-3.1675,-3.1626,-3.1656,-3.1649,-3.1645,-3.1687,-3.1704,-3.1683,-3.1777,-3.1743,-3.175,-3.1751,-3.1774,-3.1786,-3.1797,-3.1654,-3.1653,-3.1652,0,0,-3.1753,-3.1747,-3.1778,-3.1775,-3.1769,-3.1752,-3.176,-3.1747,-3.1739,-3.1769,-3.1733,-3.1749,-3.1773,-3.1771,-3.1774,-3.1856,-3.1828,-3.1861,-3.1913,-3.1938,-3.1948,-3.1957,-3.1986,-3.1996,-3.1867,-3.1867,-3.1867,0,-3.1803,-3.1827,-3.1797,-3.182,-3.1824,-3.1781,-3.1812,-3.1811,-3.181,-3.1814,-3.179,-3.1818,-3.1813,-3.1853,-3.1873,-3.1877,-3.1885,-3.1861,-3.1949,-3.1958,-3.1965,-3.1992,-3.2003,-3.1871,-3.1871,-3.187,-3.187,0,-3.1888,-3.1906,-3.1932,-3.1931,-3.1938,-3.1965,-3.194,-3.1951,-3.1931,-3.1917,-3.1948,-3.1941,-3.1949,-3.1958,-3.1938,-3.1996,-3.1983,-3.1955,-3.1911,-3.1982,-3.2007,-3.2017,-3.1877,-3.1875,-3.1874,-3.1873,0,0,-3.2008,-3.1991,-3.2,-3.1999,-3.1991,-3.2004,-3.2031,-3.2038,-3.2048,-3.2049,-3.207,-3.2092,-3.2066,-3.2069,-3.2049,-3.2071,-3.2136,-3.204,-3.204,-3.2057,-3.2199,-3.2219,-3.2231,-3.2119,-3.212,-3.2122,-3.2199,0,-3.2084,-3.2126,-3.2101,-3.2147,-3.2163,-3.2123,-3.2146,-3.2144,-3.2133,-3.2146,-3.2134,-3.2149,-3.2114,-3.2115,-3.2136,-3.2124,-3.2164,-3.2119,-3.2138,-3.2139,-3.2138,-3.2244,-3.2265,-3.2338,-3.2209,-3.221,-3.2211,0,-3.2178,-3.2183,-3.223,-3.2218,-3.2224,-3.2245,-3.225,-3.2263,-3.226,-3.2251,-3.2255,-3.223,-3.2256,-3.2215,-3.225,-3.222,-3.2227,-3.2223,-3.2225,-3.2224,-3.2178,-3.2245,-3.2361,-3.2371,-3.2226,-3.2225,-3.2224,0,-3.2259,-3.2278,-3.2308,-3.2309,-3.2296,-3.2312,-3.2308,-3.2302,-3.2309,-3.2314,-3.2318,-3.2327,-3.2332,-3.234,-3.2319,-3.2291,-3.2357,-3.2314,-3.235,-3.235,-3.2364,-3.2363,-3.2481,-3.2371,-3.2371,-3.2371,-3.2371,0,-3.2346,-3.2377,-3.2344,-3.2363,-3.2396,-3.2368,-3.2402,-3.2394,-3.239,-3.2407,-3.2375,-3.2392,-3.2363,-3.2378,-3.2362,-3.2393,-3.2396,-3.2389,-3.2384,-3.2391,-3.2392,-3.2394,-3.2388,-3.2374,-3.2373,-3.2372,-3.2372,0,-3.2441,-3.2421,-3.2451,-3.2437,-3.2435,-3.246,-3.2448,-3.2465,-3.2453,-3.2475,-3.2479,-3.2459,-3.2474,-3.2454,-3.2469,-3.2458,-3.2501,-3.2489,-3.2501,-3.2497,-3.2533,-3.2529,-3.2655,-3.267,-3.2552,-3.2553,-3.2554,0,-3.2497,-3.2519,-3.2508,-3.2516,-3.2514,-3.2529,-3.2535,-3.2509,-3.2517,-3.2516,-3.2534,-3.2546,-3.2555,-3.2582,-3.257,-3.258,-3.2568,-3.2611,-3.2569,-3.2576,-3.2567,-3.2566,-3.2567,-3.2619,-3.2621,-3.2622,-3.2623,0,-3.2598,-3.2587,-3.2597,-3.2604,-3.2612,-3.2616,-3.2618,-3.2627,-3.26,-3.2611,-3.2626,-3.2633,-3.2647,-3.266,-3.2668,-3.2665,-3.264,-3.2636,-3.2645,-3.2651,-3.2657,-3.2653,-3.2523,-3.2633,-3.2632,-3.2631,-3.2631,-3.263,-3.2675,-3.2692,-3.2687,-3.2699,-3.2698,-3.2701,-3.2716,-3.2705,-3.2717,-3.2725,-3.271,-3.2729,-3.2727,-3.2735,-3.2735,-3.275,-3.2731,-3.2744,-3.2747,-3.275,-3.2755,-3.2656,-3.2752,-3.2751,-3.2751,-3.2751,-3.275,0,-3.2773,-3.2768,-3.2779,-3.2782,-3.2792,-3.2768,-3.2769,-3.2779,-3.2796,-3.2796,-3.2805,-3.2823,-3.2836,-3.2825,-3.2836,-3.285,-3.2839,-3.2854,-3.2852,-3.2851,-3.2772,-3.2762,-3.2863,-3.2863,-3.2863,-3.2863,-3.2863,-3.2863,-3.2825,-3.2854,-3.2843,-3.2871,-3.2866,-3.2883,-3.2886,-3.2889,-3.2888,-3.2909,-3.2919,-3.2912,-3.2908,-3.2918,-3.293,-3.2926,-3.2931,-3.295,-3.2943,-3.2868,-3.2857,-3.2846,-3.2837,-3.2952,-3.2952,-3.3021,-3.3022,-3.3022]},{"header":{"parameterUnit":"m.s-1","parameterCategory":1,"la1":30.2991,"la2":30.254,"lo1":-89.0895,"lo2":-89.0444,"dy":0.0017,"dx":0.0017,"nx":28,"ny":28,"refTime":"2025-04-19T09:00:00:Z","depth":0,"parameterNumber":3,"parameterNumberName":"V-component_of_WINDS"},"data":[0,0,0,0,0,0,0,0,0,0,0,0,0,0,0,0,0,0,0,0,0,0,0,0,0,0,0,0,0,0,0,0,0,0,0,0,0,0,0,0,0,0,0,0,0,0,0,0,0,0,0,0,0,0,0,0,0,0,2.0556,2.0557,0,2.0641,2.0642,2.0643,2.0704,2.0705,2.0705,2.0706,2.0794,2.0795,2.0797,0,0,0,0,0,0,0,0,0,0,0,0,0,2.0446,2.0448,2.0556,2.0557,2.0558,2.0641,2.0642,2.0643,2.0704,2.0705,2.0705,2.0706,2.0793,2.0795,2.0797,0,0,0,0,0,0,0,0,0,0,0,0,0,2.0509,2.0448,2.0556,2.0598,2.0603,2.0641,2.0642,2.0644,2.0704,2.0705,2.0705,2.0706,2.0792,2.0795,2.0798,2.08,0,0,2.0806,2.0808,0,0,0,0,0,0,0,0,2.0505,2.0513,2.0591,2.0595,2.0601,2.0663,2.0636,2.0696,2.0704,2.0666,2.0706,2.0706,2.0749,2.0756,2.077,2.0804,2.0808,2.0807,2.0808,2.081,2.081,0,0,0,0,0,0,0,2.0501,2.0509,2.059,2.0592,2.0598,2.0613,2.0623,2.0648,2.0702,2.0669,2.0674,2.0683,2.0752,2.0767,2.0773,2.081,2.0807,2.0809,2.0811,2.0812,2.0851,2.0851,0,0,0,0,0,0,2.049,2.0505,2.0587,2.0592,2.0554,2.0615,2.0626,2.0642,2.0702,2.0712,2.0682,2.0685,2.0762,2.0769,2.0776,2.0785,2.081,2.0812,2.0814,2.0852,2.0851,2.085,0,0,0,0,0,0,2.0487,2.0496,2.0583,2.055,2.0562,2.0616,2.0634,2.0643,2.0659,2.0712,2.0722,2.0687,2.0763,2.0772,2.0794,2.0788,2.0813,2.0816,2.0853,2.0852,2.0851,2.08,0,0,0,0,0,0,2.0484,2.0495,2.0496,2.055,2.0564,2.06,2.0633,2.0644,2.0663,2.0668,2.072,2.0729,2.0764,2.079,2.0797,2.0793,2.0818,2.0853,2.0852,2.0851,2.0803,2.0798,2.0793,0,0,0,0,0,2.0479,2.0479,2.0496,2.0506,2.0567,2.0599,2.0607,2.0648,2.0662,2.0665,2.0699,2.0728,2.0787,2.0791,2.08,2.0797,2.0854,2.0853,2.0851,2.0805,2.0799,2.0793,0,0,0,0,0,0,2.0424,2.0486,2.0507,2.0523,2.0555,2.0609,2.0614,2.064,2.0669,2.0673,2.0721,2.0733,2.075,2.0775,2.0778,2.0803,2.0824,2.0824,2.0786,2.078,2.0776,2.077,2.0821,0,0,0,0,0,2.0413,2.0434,2.0488,2.0497,2.0512,2.056,2.0575,2.0604,2.0639,2.0653,2.0689,2.0723,2.075,2.0766,2.0793,2.0806,2.0819,2.0808,2.0803,2.0799,2.0799,2.0809,2.0805,2.0846,2.0846,2.0846,0,0,2.0392,2.0429,2.0439,2.0487,2.0515,2.0536,2.0571,2.0592,2.0608,2.0657,2.068,2.0707,2.0748,2.0766,2.0775,2.0787,2.079,2.0797,2.0793,2.0796,2.0807,2.0803,2.0799,2.0845,2.0845,2.0845,0,0,2.0365,2.0394,2.0405,2.0433,2.0476,2.0507,2.051,2.056,2.058,2.0604,2.0641,2.0661,2.0705,2.0733,2.0753,2.0736,2.0763,2.0743,2.0719,2.0728,2.0725,2.0722,2.0718,2.0715,2.0743,2.0742,2.0742,0,2.0333,2.0366,2.0408,2.0427,2.0447,2.0491,2.0504,2.0529,2.0578,2.0591,2.0604,2.0661,2.0691,2.0716,2.0712,2.0726,2.0731,2.0738,2.0722,2.072,2.0718,2.0714,2.0712,2.074,2.074,2.074,2.0741,0,2.0326,2.0349,2.0353,2.0399,2.042,2.0435,2.0479,2.0495,2.0521,2.0551,2.0575,2.0613,2.065,2.0657,2.0683,2.0686,2.0693,2.0712,2.0736,2.0711,2.0708,2.0707,2.0736,2.0737,2.0738,2.0738,0,0,2.0268,2.0337,2.0338,2.036,2.0409,2.0428,2.0445,2.048,2.0493,2.0525,2.0542,2.0578,2.0597,2.0619,2.0648,2.0656,2.0641,2.0675,2.0677,2.0669,2.0649,2.0634,2.0632,2.0659,2.0659,2.0658,2.0646,0,2.025,2.0284,2.0321,2.0342,2.0364,2.0406,2.0421,2.0453,2.0482,2.0504,2.0536,2.0561,2.0584,2.0598,2.0607,2.0641,2.0638,2.0642,2.0676,2.0676,2.0666,2.063,2.0615,2.0602,2.0645,2.0645,2.0644,0,2.0234,2.0264,2.0286,2.0334,2.0345,2.0358,2.0394,2.0414,2.0452,2.0472,2.0497,2.0527,2.0548,2.0567,2.0597,2.0599,2.0615,2.0633,2.0634,2.064,2.066,2.0637,2.0598,2.0597,2.0643,2.0643,2.0643,0,2.0191,2.0237,2.0257,2.0274,2.033,2.0338,2.0362,2.04,2.0419,2.045,2.0463,2.0495,2.0513,2.0538,2.0577,2.0587,2.0603,2.0625,2.0621,2.062,2.0625,2.0624,2.0589,2.0631,2.0631,2.0631,2.0631,0,2.0168,2.0181,2.0238,2.0251,2.0266,2.0309,2.0324,2.0351,2.0385,2.0404,2.0441,2.0458,2.0507,2.053,2.056,2.0581,2.0589,2.0606,2.0615,2.0604,2.0602,2.0617,2.0619,2.0631,2.0631,2.0631,2.0631,0,2.0124,2.0163,2.0187,2.0238,2.0251,2.0261,2.0304,2.0318,2.0348,2.0372,2.038,2.0427,2.0456,2.0496,2.0537,2.0558,2.0575,2.0587,2.0562,2.0568,2.0563,2.0563,2.0537,2.0537,2.0577,2.0576,2.0576,0,2.0107,2.0118,2.017,2.0185,2.0208,2.0231,2.0251,2.0293,2.0312,2.0355,2.0364,2.0396,2.0423,2.0467,2.0506,2.0537,2.0552,2.054,2.0557,2.0546,2.0554,2.0553,2.0555,2.0537,2.0536,2.0536,2.0535,0,2.0075,2.0094,2.012,2.0153,2.0175,2.0203,2.0233,2.0243,2.0292,2.0311,2.0341,2.0362,2.0404,2.0435,2.0472,2.0497,2.0525,2.0529,2.0531,2.0521,2.0507,2.0516,2.0554,2.053,2.0531,2.0531,2.0532,2.0532,2.0046,2.0058,2.0096,2.0124,2.0151,2.0178,2.0193,2.0225,2.0251,2.0288,2.0311,2.034,2.0378,2.043,2.0453,2.0477,2.0488,2.0489,2.049,2.049,2.0487,2.0502,2.0483,2.0484,2.0484,2.0484,2.0484,0,2.0017,2.0043,2.0068,2.0109,2.0131,2.0154,2.0188,2.0205,2.023,2.0262,2.0289,2.0323,2.0354,2.0394,2.0427,2.0438,2.0452,2.0446,2.0447,2.0452,2.0475,2.0471,2.0434,2.0434,2.0434,2.0434,2.0434,2.0434,2.0005,2.0026,2.0049,2.0084,2.0111,2.014,2.0157,2.0182,2.0208,2.0245,2.0271,2.0296,2.0332,2.0368,2.0397,2.0408,2.042,2.041,2.0425,2.0446,2.045,2.0455,2.0452,2.0411,2.0411,2.0401,2.04,2.04]}]]